SL-8 DEB, 1591

Orbit data source: Space-Track

SL-8 DEB, 1591 is space debris in LEO originally from a launch on Sat, 18 Sep 1965 UTC launched from the Tyuratam Missile And Space Complex (TTMTR). Debris objects in space refer to the collection of defunct objects orbiting the Earth. Examples of debris include non-operational satellites, rocket bodies, and fragments generated from explosions, collisions, or faulty payload assembly.

Loading next visibility...
SL-8 DEB details
Identifier
1591, 1965-073H
Orbit
LEO
Last TLE update21 hours ago
Origin
Flag of CISRVSN (CIS)
ManufacturerUnknown
MissionSpacecraft
Bus & MotorUnknown
MassUnknown
Launch date (UTC)
1965-09-18 (59 years ago)
Launch vehicleUnknown
Launch site
Tyuratam Missile And Space Complex (TTMTR)
Object type
Payload
Rocket body
Debris
Shape & HBRUnknown
Radar Cross SectionSmall (<0.1 m²)

Expand to show TLE details & history

TLE from 21 hours ago
0 SL-8 DEB
1 01591U 65073H   24355.81498556  .00000193  00000-0  19848-2 0  9997
2 01591  56.0561 156.5907 0148740 329.0900 147.6936 12.42800519681161
Epoch: 2024-12-20T19:33Z
Definitive object data (Epoch: 2024-12-20T19:33:34.752Z)
Latitude47.39769°
Longitude-93.43033°
Altitude1,599.819 km
Speed7.03 km/s
True Right ascension19h 19m 21s
True Declination47° 14' 40"
Sunlit
Object was in daylight at TLE epoch
Visualization TLE readout
Latitude-9.09837°
Longitude124.8831°
Altitude1,386.493 km
Speed7.217 km/s
Apparent Right ascension07h 30m 32s
Apparent Declination-32° 35' 09"
Sunlit
Object is in daylight
Visualization observer readout
Local Sidereal Time15:08:54
Azimuth256.207° W
Elevation-37.916°
Doppler factor1
Orbital elements
Apogee altitude1,611.676 km
Perigee altitude1,377.479 km
Semi-major axis7,872.715 km
Eccentricity0.014874
Inclination56.0561°
RAAN156.5907°
Arg. of periapsis329.09°
True anomaly148.59039°
Mean anomaly147.6936°
Eccentric anomaly148.1434°
Mean motion3.10711 °/min
BSTAR0.0019848
Orbital period115.86 mins
Loading maneuver chart data...
Loading historical data...
Loading historical data...
Loading historical data...
Loading historical data...
Loading historical data...
Loading historical data...
Loading historical data...

SL-8 DEB Visibility forecast

Observer location: undefined°, undefined

Span
Click to sort rows by Start time (UTC) header in descending order
Start Az.
Max El. time (UTC)
Max El. Az.
Max El.
End time (UTC)
End Az.
15 mins2024-12-21 16:28:30.064Z293.238° NW2024-12-21 16:36:30.064Z355.458° N26.664°2024-12-21 16:43:30.064Z47.908° ENE
15 mins2024-12-21 18:33:30.064Z322.392° NNW2024-12-21 18:40:30.064Z24.241° NE30.491°2024-12-21 18:48:30.064Z83.438° E
17 mins2024-12-21 20:34:30.064Z315.985° NNW2024-12-21 20:42:30.064Z25.03° NE44.682°2024-12-21 20:51:30.064Z131.698° SE
14 mins2024-12-21 22:36:30.064Z292.857° NW2024-12-21 22:43:30.064Z238.655° WSW26.366°2024-12-21 22:50:30.064Z188.874° SSW
13 mins2024-12-22 11:34:30.064Z171.538° S2024-12-22 11:40:30.064Z120.722° SE27.216°2024-12-22 11:47:30.064Z63.874° ENE
16 mins2024-12-22 13:33:30.064Z233.692° WSW2024-12-22 13:41:30.064Z341.678° N43.819°2024-12-22 13:49:30.064Z43.414° NE
14 mins2024-12-22 15:37:30.064Z288.283° WNW2024-12-22 15:43:30.064Z340.812° N29.001°2024-12-22 15:51:30.064Z43.967° NE
|